Location: Isola Pescaroli
(45.0500°N, 10.1667°E)
Time: 23:45:25
(UTC+00:00)

CZ-4 R/B - Pass Details

Date: 03 March 2021
Orbit: 532 x 597 km, 97.7° (Epoch: 18 April)

Event Time Altitude Azimuth Distance (km) Brightness Sun altitude
Rises 18:01:29 0° 171° (S) 2,665 4.7 -10.0°
Reaches altitude 10° 18:03:34 10° 174° (S) 1,782 3.9 -10.3°
Maximum altitude 18:07:24 70° 258° (WSW) 575 1.6 -11.0°
Drops below altitude 10° 18:11:19 10° 343° (NNW) 1,820 4.2 -11.7°
Sets 18:13:28 0° 346° (NNW) 2,727 5.1 -12.1°
